Time,TemperatureF,DewpointF,PressureIn,WindDirection,WindDirectionDegrees,WindSpeedMPH,WindSpeedGustMPH,Humidity,HourlyPrecipIn,Conditions,Clouds,dailyrainin,SoftwareType,DateUTC
2013-02-20 00:00:00,37.9,27.7,29.80,WNW,298,9.0,20.0,66,0.00,,,0.23,meteohub,2013-02-20 05:00:00,
2013-02-20 00:05:00,37.8,27.5,29.80,West,279,7.0,20.0,66,0.00,,,0.00,meteohub,2013-02-20 05:05:00,
2013-02-20 00:10:00,37.8,27.9,29.80,WNW,297,3.0,13.0,67,0.00,,,0.00,meteohub,2013-02-20 05:10:00,
2013-02-20 00:15:00,37.6,27.7,29.80,NNW,334,7.0,13.0,67,0.00,,,0.00,meteohub,2013-02-20 05:15:00,
2013-02-20 00:20:00,37.6,27.7,29.80,NW,314,11.0,13.0,67,0.00,,,0.00,meteohub,2013-02-20 05:20:00,
2013-02-20 00:25:00,37.6,27.3,29.80,WNW,283,6.0,15.0,66,0.00,,,0.00,meteohub,2013-02-20 05:25:00,
2013-02-20 00:30:00,37.4,27.1,29.80,NW,307,10.0,15.0,66,0.00,,,0.00,meteohub,2013-02-20 05:30:00,
2013-02-20 00:35:00,37.2,26.6,29.80,NW,307,4.0,15.0,65,0.00,,,0.00,meteohub,2013-02-20 05:35:00,
2013-02-20 00:40:00,37.0,26.4,29.80,NW,308,10.0,15.0,65,0.00,,,0.00,meteohub,2013-02-20 05:40:00,
2013-02-20 00:45:00,36.9,26.6,29.80,WNW,295,11.0,15.0,66,0.00,,,0.00,meteohub,2013-02-20 05:45:00,
2013-02-20 00:50:00,36.9,26.6,29.80,WNW,290,4.0,16.0,66,0.00,,,0.00,meteohub,2013-02-20 05:50:00,
2013-02-20 00:55:00,36.7,26.4,29.80,WNW,300,7.0,16.0,66,0.00,,,0.00,meteohub,2013-02-20 05:55:00,
2013-02-20 01:00:00,36.5,26.2,29.80,WNW,289,10.0,16.0,66,0.00,,,0.00,meteohub,2013-02-20 06:00:00,
2013-02-20 01:05:00,36.3,26.4,29.80,WSW,255,9.0,11.0,67,0.00,,,0.00,meteohub,2013-02-20 06:05:00,
2013-02-20 01:10:00,36.1,25.9,29.80,WNW,300,6.0,11.0,66,0.00,,,0.00,meteohub,2013-02-20 06:10:00,
2013-02-20 01:15:00,36.0,25.3,29.80,West,270,5.0,13.0,65,0.00,,,0.00,meteohub,2013-02-20 06:15:00,
2013-02-20 01:20:00,36.1,24.8,29.80,WNW,300,7.0,18.0,63,0.00,,,0.00,meteohub,2013-02-20 06:20:00,
2013-02-20 01:25:00,36.0,24.6,29.80,West,274,5.0,18.0,63,0.00,,,0.00,meteohub,2013-02-20 06:25:00,
2013-02-20 01:30:00,35.8,24.1,29.81,WNW,288,8.0,18.0,62,0.00,,,0.00,meteohub,2013-02-20 06:30:00,
2013-02-20 01:35:00,35.8,23.7,29.81,West,262,11.0,15.0,61,0.00,,,0.00,meteohub,2013-02-20 06:35:00,
2013-02-20 01:40:00,35.8,23.7,29.81,WNW,288,9.0,15.0,61,0.00,,,0.00,meteohub,2013-02-20 06:40:00,
2013-02-20 01:45:00,35.4,23.4,29.81,WSW,252,9.0,17.0,61,0.00,,,0.00,meteohub,2013-02-20 06:45:00,
2013-02-20 01:50:00,35.4,23.4,29.81,NW,304,9.0,17.0,61,0.00,,,0.00,meteohub,2013-02-20 06:50:00,
2013-02-20 01:55:00,35.2,23.5,29.81,WNW,300,6.0,17.0,62,0.00,,,0.00,meteohub,2013-02-20 06:55:00,
2013-02-20 02:00:00,35.1,23.4,29.81,NW,304,2.0,14.0,62,0.00,,,0.00,meteohub,2013-02-20 07:00:00,
2013-02-20 02:05:00,34.9,23.2,29.82,WNW,290,8.0,17.0,62,0.00,,,0.00,meteohub,2013-02-20 07:05:00,
2013-02-20 02:10:00,34.9,23.2,29.82,NW,308,7.0,20.0,62,0.00,,,0.00,meteohub,2013-02-20 07:10:00,
2013-02-20 02:15:00,34.7,23.0,29.82,WNW,291,6.0,20.0,62,0.00,,,0.00,meteohub,2013-02-20 07:15:00,
2013-02-20 02:20:00,34.5,23.2,29.83,WNW,287,10.0,20.0,63,0.00,,,0.00,meteohub,2013-02-20 07:20:00,
2013-02-20 02:25:00,34.3,22.6,29.83,West,264,8.0,19.0,62,0.00,,,0.00,meteohub,2013-02-20 07:25:00,
2013-02-20 02:30:00,34.3,22.6,29.83,WNW,297,6.0,19.0,62,0.00,,,0.00,meteohub,2013-02-20 07:30:00,
2013-02-20 02:35:00,34.2,22.5,29.83,West,270,13.0,19.0,62,0.00,,,0.00,meteohub,2013-02-20 07:35:00,
2013-02-20 02:40:00,34.0,22.3,29.83,WNW,300,13.0,16.0,62,0.00,,,0.00,meteohub,2013-02-20 07:40:00,
2013-02-20 02:45:00,34.0,22.3,29.83,West,281,17.0,22.0,62,0.00,,,0.00,meteohub,2013-02-20 07:45:00,
2013-02-20 02:50:00,33.8,22.1,29.82,WNW,300,11.0,22.0,62,0.00,,,0.00,meteohub,2013-02-20 07:50:00,
2013-02-20 02:55:00,33.6,21.9,29.82,WNW,288,9.0,22.0,62,0.00,,,0.00,meteohub,2013-02-20 07:55:00,
2013-02-20 03:00:00,33.4,21.7,29.82,NNW,333,5.0,18.0,62,0.00,,,0.00,meteohub,2013-02-20 08:00:00,
2013-02-20 03:05:00,33.3,21.7,29.82,NW,313,9.0,18.0,62,0.00,,,0.00,meteohub,2013-02-20 08:05:00,
2013-02-20 03:10:00,33.3,22.1,29.82,WSW,256,5.0,18.0,63,0.00,,,0.00,meteohub,2013-02-20 08:10:00,
2013-02-20 03:15:00,33.1,21.0,29.82,WNW,294,14.0,18.0,61,0.00,,,0.00,meteohub,2013-02-20 08:15:00,
2013-02-20 03:20:00,33.1,21.0,29.83,WNW,297,8.0,18.0,61,0.00,,,0.00,meteohub,2013-02-20 08:20:00,
2013-02-20 03:25:00,32.9,20.8,29.83,NW,304,8.0,18.0,61,0.00,,,0.00,meteohub,2013-02-20 08:25:00,
2013-02-20 03:30:00,32.9,20.8,29.83,WNW,297,9.0,18.0,61,0.00,,,0.00,meteohub,2013-02-20 08:30:00,
2013-02-20 03:35:00,32.7,20.3,29.83,WNW,294,18.0,18.0,60,0.00,,,0.00,meteohub,2013-02-20 08:35:00,
2013-02-20 03:40:00,32.7,20.3,29.83,WNW,287,11.0,18.0,60,0.00,,,0.00,meteohub,2013-02-20 08:40:00,
2013-02-20 03:45:00,32.7,20.3,29.83,WNW,284,9.0,18.0,60,0.00,,,0.00,meteohub,2013-02-20 08:45:00,
2013-02-20 03:50:00,32.5,20.1,29.83,West,266,10.0,18.0,60,0.00,,,0.00,meteohub,2013-02-20 08:50:00,
2013-02-20 03:55:00,32.5,20.7,29.83,WNW,288,4.0,16.0,61,0.00,,,0.00,meteohub,2013-02-20 08:55:00,
2013-02-20 04:00:00,32.4,20.5,29.83,WNW,295,9.0,16.0,61,0.00,,,0.00,meteohub,2013-02-20 09:00:00,
2013-02-20 04:05:00,32.4,20.5,29.84,NW,307,3.0,15.0,61,0.00,,,0.00,meteohub,2013-02-20 09:05:00,
2013-02-20 04:10:00,32.4,20.5,29.84,WNW,294,4.0,16.0,61,0.00,,,0.00,meteohub,2013-02-20 09:10:00,
2013-02-20 04:15:00,32.2,20.7,29.84,WNW,295,7.0,16.0,62,0.00,,,0.00,meteohub,2013-02-20 09:15:00,
2013-02-20 04:20:00,32.0,20.5,29.84,WNW,293,5.0,16.0,62,0.00,,,0.00,meteohub,2013-02-20 09:20:00,
2013-02-20 04:26:00,32.0,20.5,29.84,WNW,284,6.0,15.0,62,0.00,,,0.00,meteohub,2013-02-20 09:26:00,
2013-02-20 04:31:00,31.8,20.3,29.84,WNW,295,7.0,15.0,62,0.00,,,0.00,meteohub,2013-02-20 09:31:00,
2013-02-20 04:36:00,31.8,20.7,29.84,WNW,297,3.0,15.0,63,0.00,,,0.00,meteohub,2013-02-20 09:36:00,
2013-02-20 04:41:00,31.6,20.5,29.85,WNW,295,3.0,15.0,63,0.00,,,0.00,meteohub,2013-02-20 09:41:00,
2013-02-20 04:46:00,31.5,20.7,29.85,WNW,294,6.0,15.0,64,0.00,,,0.00,meteohub,2013-02-20 09:46:00,
2013-02-20 04:51:00,31.5,20.7,29.85,West,278,5.0,15.0,64,0.00,,,0.00,meteohub,2013-02-20 09:51:00,
2013-02-20 04:56:00,31.3,20.5,29.85,WNW,300,3.0,9.0,64,0.00,,,0.00,meteohub,2013-02-20 09:56:00,
2013-02-20 05:01:00,31.3,20.5,29.85,WNW,300,5.0,7.0,64,0.00,,,0.00,meteohub,2013-02-20 10:01:00,
2013-02-20 05:06:00,31.3,20.5,29.85,WNW,291,3.0,8.0,64,0.00,,,0.00,meteohub,2013-02-20 10:06:00,
2013-02-20 05:11:00,31.5,20.3,29.86,WNW,300,11.0,15.0,63,0.00,,,0.00,meteohub,2013-02-20 10:11:00,
2013-02-20 05:16:00,31.6,20.1,29.86,WNW,297,7.0,18.0,62,0.00,,,0.00,meteohub,2013-02-20 10:16:00,
2013-02-20 05:21:00,31.6,20.1,29.86,West,276,11.0,18.0,62,0.00,,,0.00,meteohub,2013-02-20 10:21:00,
2013-02-20 05:26:00,31.6,20.1,29.86,WSW,246,6.0,16.0,62,0.00,,,0.00,meteohub,2013-02-20 10:26:00,
2013-02-20 05:31:00,31.6,20.1,29.86,West,277,11.0,16.0,62,0.00,,,0.00,meteohub,2013-02-20 10:31:00,
2013-02-20 05:36:00,31.6,20.1,29.86,WNW,284,7.0,14.0,62,0.00,,,0.00,meteohub,2013-02-20 10:36:00,
2013-02-20 05:41:00,31.6,20.1,29.86,NW,308,8.0,14.0,62,0.00,,,0.00,meteohub,2013-02-20 10:41:00,
2013-02-20 05:46:00,31.8,20.3,29.86,WNW,300,8.0,14.0,62,0.00,,,0.00,meteohub,2013-02-20 10:46:00,
2013-02-20 05:51:00,31.6,20.1,29.86,WNW,296,9.0,14.0,62,0.00,,,0.00,meteohub,2013-02-20 10:51:00,
2013-02-20 05:56:00,31.6,20.5,29.86,WNW,283,4.0,14.0,63,0.00,,,0.00,meteohub,2013-02-20 10:56:00,
2013-02-20 06:01:00,31.5,20.3,29.86,WNW,290,11.0,14.0,63,0.00,,,0.00,meteohub,2013-02-20 11:01:00,
2013-02-20 06:06:00,31.5,19.9,29.87,WNW,291,11.0,14.0,62,0.00,,,0.00,meteohub,2013-02-20 11:06:00,
2013-02-20 06:11:00,31.5,19.9,29.87,NW,314,7.0,18.0,62,0.00,,,0.00,meteohub,2013-02-20 11:11:00,
2013-02-20 06:16:00,31.3,19.4,29.87,WNW,288,6.0,18.0,61,0.00,,,0.00,meteohub,2013-02-20 11:16:00,
2013-02-20 06:21:00,31.3,19.8,29.87,WSW,253,5.0,18.0,62,0.00,,,0.00,meteohub,2013-02-20 11:21:00,
2013-02-20 06:26:00,30.9,19.0,29.88,NW,309,7.0,18.0,61,0.00,,,0.00,meteohub,2013-02-20 11:26:00,
2013-02-20 06:31:00,30.7,18.9,29.88,WNW,296,11.0,13.0,61,0.00,,,0.00,meteohub,2013-02-20 11:31:00,
2013-02-20 06:36:00,30.7,18.1,29.88,WNW,298,2.0,15.0,59,0.00,,,0.00,meteohub,2013-02-20 11:36:00,
2013-02-20 06:41:00,30.6,18.0,29.89,WNW,290,6.0,15.0,59,0.00,,,0.00,meteohub,2013-02-20 11:41:00,
2013-02-20 06:46:00,30.6,18.0,29.88,NNW,328,4.0,15.0,59,0.00,,,0.00,meteohub,2013-02-20 11:46:00,
2013-02-20 06:51:00,30.4,18.1,29.89,WNW,289,11.0,15.0,60,0.00,,,0.00,meteohub,2013-02-20 11:51:00,
2013-02-20 06:56:00,30.4,17.8,29.89,WNW,294,9.0,15.0,59,0.00,,,0.00,meteohub,2013-02-20 11:56:00,
2013-02-20 07:01:00,30.2,17.6,29.89,NW,304,8.0,16.0,59,0.00,,,0.00,meteohub,2013-02-20 12:01:00,
2013-02-20 07:06:00,30.2,17.6,29.89,West,274,5.0,16.0,59,0.00,,,0.00,meteohub,2013-02-20 12:06:00,
2013-02-20 07:11:00,30.0,17.1,29.90,WNW,284,8.0,16.0,58,0.00,,,0.00,meteohub,2013-02-20 12:11:00,
2013-02-20 07:16:00,30.0,17.1,29.90,West,273,6.0,16.0,58,0.00,,,0.00,meteohub,2013-02-20 12:16:00,
2013-02-20 07:21:00,30.0,17.1,29.90,NW,326,2.0,13.0,58,0.00,,,0.00,meteohub,2013-02-20 12:21:00,
2013-02-20 07:26:00,30.0,17.1,29.91,NW,309,7.0,12.0,58,0.00,,,0.00,meteohub,2013-02-20 12:26:00,
2013-02-20 07:31:00,30.0,17.1,29.91,WNW,290,10.0,12.0,58,0.00,,,0.00,meteohub,2013-02-20 12:31:00,
2013-02-20 07:36:00,30.0,17.1,29.91,West,260,16.0,20.0,58,0.00,,,0.00,meteohub,2013-02-20 12:36:00,
2013-02-20 07:41:00,30.0,17.4,29.91,WNW,292,9.0,20.0,59,0.00,,,0.00,meteohub,2013-02-20 12:41:00,
2013-02-20 07:46:00,30.0,17.4,29.91,West,281,12.0,20.0,59,0.00,,,0.00,meteohub,2013-02-20 12:46:00,
2013-02-20 07:51:00,30.0,17.4,29.92,West,260,13.0,19.0,59,0.00,,,0.00,meteohub,2013-02-20 12:51:00,
2013-02-20 07:56:00,29.8,17.6,29.92,WNW,294,8.0,19.0,60,0.00,,,0.00,meteohub,2013-02-20 12:56:00,
2013-02-20 08:01:00,29.7,17.4,29.92,NW,312,11.0,20.0,60,0.00,,,0.00,meteohub,2013-02-20 13:01:00,
2013-02-20 08:06:00,29.7,17.8,29.92,WNW,284,7.0,20.0,61,0.00,,,0.00,meteohub,2013-02-20 13:06:00,
2013-02-20 08:11:00,29.7,18.3,29.93,WNW,283,6.0,20.0,62,0.00,,,0.00,meteohub,2013-02-20 13:11:00,
2013-02-20 08:16:00,29.7,17.8,29.93,NW,309,11.0,20.0,61,0.00,,,0.00,meteohub,2013-02-20 13:16:00,
2013-02-20 08:21:00,29.7,17.4,29.93,WNW,296,11.0,18.0,60,0.00,,,0.00,meteohub,2013-02-20 13:21:00,
2013-02-20 08:26:00,29.8,17.2,29.93,WNW,302,6.0,21.0,59,0.00,,,0.00,meteohub,2013-02-20 13:26:00,
2013-02-20 08:31:00,30.0,16.7,29.93,WNW,298,12.0,21.0,57,0.00,,,0.00,meteohub,2013-02-20 13:31:00,
2013-02-20 08:36:00,30.4,17.1,29.93,NW,309,12.0,21.0,57,0.00,,,0.00,meteohub,2013-02-20 13:36:00,
2013-02-20 08:41:00,30.4,17.4,29.94,NW,307,8.0,21.0,58,0.00,,,0.00,meteohub,2013-02-20 13:41:00,
2013-02-20 08:46:00,30.2,17.6,29.94,NW,304,5.0,21.0,59,0.00,,,0.00,meteohub,2013-02-20 13:46:00,
2013-02-20 08:51:00,30.2,17.2,29.94,West,273,9.0,21.0,58,0.00,,,0.00,meteohub,2013-02-20 13:51:00,
2013-02-20 08:56:00,30.0,17.1,29.94,WNW,290,10.0,26.0,58,0.00,,,0.00,meteohub,2013-02-20 13:56:00,
2013-02-20 09:01:00,29.8,16.5,29.94,WNW,300,7.0,26.0,57,0.00,,,0.00,meteohub,2013-02-20 14:01:00,
2013-02-20 09:06:00,29.8,16.5,29.94,West,277,18.0,26.0,57,0.00,,,0.00,meteohub,2013-02-20 14:06:00,
2013-02-20 09:11:00,29.7,16.3,29.94,NW,316,4.0,22.0,57,0.00,,,0.00,meteohub,2013-02-20 14:11:00,
2013-02-20 09:16:00,29.7,16.3,29.94,NW,311,11.0,22.0,57,0.00,,,0.00,meteohub,2013-02-20 14:16:00,
2013-02-20 09:21:00,29.7,15.8,29.93,WNW,300,11.0,22.0,56,0.00,,,0.00,meteohub,2013-02-20 14:21:00,
2013-02-20 09:26:00,29.8,16.5,29.93,WNW,297,12.0,22.0,57,0.00,,,0.00,meteohub,2013-02-20 14:26:00,
2013-02-20 09:31:00,29.8,16.5,29.93,NW,304,7.0,22.0,57,0.00,,,0.00,meteohub,2013-02-20 14:31:00,
2013-02-20 09:36:00,29.8,16.5,29.94,West,269,5.0,21.0,57,0.00,,,0.00,meteohub,2013-02-20 14:36:00,
2013-02-20 09:41:00,30.0,16.7,29.94,NW,315,9.0,21.0,57,0.00,,,0.00,meteohub,2013-02-20 14:41:00,
2013-02-20 09:46:00,30.2,16.0,29.94,NW,309,13.0,18.0,55,0.00,,,0.00,meteohub,2013-02-20 14:46:00,
2013-02-20 09:51:00,30.4,16.5,29.94,WNW,300,10.0,14.0,56,0.00,,,0.00,meteohub,2013-02-20 14:51:00,
2013-02-20 09:56:00,30.6,16.3,29.94,WNW,283,9.0,14.0,55,0.00,,,0.00,meteohub,2013-02-20 14:56:00,
2013-02-20 10:01:00,30.4,14.9,29.94,WNW,289,12.0,27.0,52,0.00,,,0.00,meteohub,2013-02-20 15:01:00,
2013-02-20 10:06:00,30.4,15.3,29.94,NW,312,19.0,27.0,53,0.00,,,0.00,meteohub,2013-02-20 15:06:00,
2013-02-20 10:11:00,30.7,15.6,29.94,West,277,10.0,27.0,53,0.00,,,0.00,meteohub,2013-02-20 15:11:00,
2013-02-20 10:16:00,30.7,15.6,29.94,WNW,302,10.0,23.0,53,0.00,,,0.00,meteohub,2013-02-20 15:16:00,
2013-02-20 10:21:00,30.4,15.8,29.94,NW,304,13.0,21.0,54,0.00,,,0.00,meteohub,2013-02-20 15:21:00,
2013-02-20 10:26:00,30.0,14.9,29.94,WNW,295,18.0,21.0,53,0.00,,,0.00,meteohub,2013-02-20 15:26:00,
2013-02-20 10:32:00,30.4,15.3,29.94,WNW,290,12.0,23.0,53,0.00,,,0.00,meteohub,2013-02-20 15:32:00,
2013-02-20 10:37:00,30.4,14.4,29.94,West,278,20.0,26.0,51,0.00,,,0.00,meteohub,2013-02-20 15:37:00,
2013-02-20 10:41:00,30.6,15.1,29.93,West,280,17.0,26.0,52,0.00,,,0.00,meteohub,2013-02-20 15:41:00,
2013-02-20 10:47:00,30.6,14.5,29.94,NW,308,12.0,26.0,51,0.00,,,0.00,meteohub,2013-02-20 15:47:00,
2013-02-20 10:52:00,30.4,14.9,29.93,West,276,10.0,23.0,52,0.00,,,0.00,meteohub,2013-02-20 15:52:00,
2013-02-20 10:57:00,30.7,15.6,29.93,NW,304,19.0,21.0,53,0.00,,,0.00,meteohub,2013-02-20 15:57:00,
2013-02-20 11:02:00,30.7,14.4,29.93,West,279,12.0,25.0,50,0.00,,,0.00,meteohub,2013-02-20 16:02:00,
2013-02-20 11:07:00,30.6,14.2,29.93,West,270,10.0,25.0,50,0.00,,,0.00,meteohub,2013-02-20 16:07:00,
2013-02-20 11:12:00,30.7,14.4,29.93,NW,316,8.0,25.0,50,0.00,,,0.00,meteohub,2013-02-20 16:12:00,
2013-02-20 11:17:00,30.9,14.0,29.93,WNW,294,12.0,25.0,49,0.00,,,0.00,meteohub,2013-02-20 16:17:00,
2013-02-20 11:22:00,30.7,13.3,29.93,NNW,328,8.0,23.0,48,0.00,,,0.00,meteohub,2013-02-20 16:22:00,
2013-02-20 11:27:00,30.7,13.8,29.93,WNW,284,15.0,26.0,49,0.00,,,0.00,meteohub,2013-02-20 16:27:00,
2013-02-20 11:32:00,30.6,13.6,29.93,NW,317,15.0,26.0,49,0.00,,,0.00,meteohub,2013-02-20 16:32:00,
2013-02-20 11:37:00,30.7,14.7,29.92,NNW,338,6.0,26.0,51,0.00,,,0.00,meteohub,2013-02-20 16:37:00,
2013-02-20 11:42:00,31.1,14.2,29.93,West,281,8.0,23.0,49,0.00,,,0.00,meteohub,2013-02-20 16:42:00,
2013-02-20 11:47:00,30.7,14.7,29.93,West,267,14.0,23.0,51,0.00,,,0.00,meteohub,2013-02-20 16:47:00,
2013-02-20 11:52:00,30.7,13.8,29.93,WNW,285,13.0,23.0,49,0.00,,,0.00,meteohub,2013-02-20 16:52:00,
2013-02-20 11:57:00,30.6,14.2,29.92,West,270,7.0,22.0,50,0.00,,,0.00,meteohub,2013-02-20 16:57:00,
2013-02-20 12:02:00,31.3,14.7,29.92,WNW,300,16.0,22.0,50,0.00,,,0.00,meteohub,2013-02-20 17:02:00,
2013-02-20 12:07:00,30.9,13.5,29.92,West,273,16.0,25.0,48,0.00,,,0.00,meteohub,2013-02-20 17:07:00,
2013-02-20 12:12:00,31.1,14.2,29.92,WNW,294,12.0,26.0,49,0.00,,,0.00,meteohub,2013-02-20 17:12:00,
2013-02-20 12:17:00,31.8,14.9,29.92,West,270,15.0,26.0,49,0.00,,,0.00,meteohub,2013-02-20 17:17:00,
2013-02-20 12:22:00,31.6,13.6,29.92,West,267,10.0,26.0,47,0.00,,,0.00,meteohub,2013-02-20 17:22:00,
2013-02-20 12:27:00,31.8,13.8,29.92,WNW,293,7.0,21.0,47,0.00,,,0.00,meteohub,2013-02-20 17:27:00,
2013-02-20 12:32:00,32.0,13.6,29.92,WNW,287,11.0,24.0,46,0.00,,,0.00,meteohub,2013-02-20 17:32:00,
2013-02-20 12:37:00,31.6,13.6,29.92,NNW,332,4.0,24.0,47,0.00,,,0.00,meteohub,2013-02-20 17:37:00,
2013-02-20 12:42:00,31.6,13.6,29.92,West,271,12.0,24.0,47,0.00,,,0.00,meteohub,2013-02-20 17:42:00,
2013-02-20 12:47:00,31.8,13.5,29.92,WNW,298,12.0,25.0,46,0.00,,,0.00,meteohub,2013-02-20 17:47:00,
2013-02-20 12:52:00,32.4,14.4,29.92,WNW,287,6.0,25.0,47,0.00,,,0.00,meteohub,2013-02-20 17:52:00,
2013-02-20 12:57:00,32.0,14.0,29.92,NW,322,7.0,25.0,47,0.00,,,0.00,meteohub,2013-02-20 17:57:00,
2013-02-20 13:02:00,31.8,14.4,29.92,NNW,345,9.0,23.0,48,0.00,,,0.00,meteohub,2013-02-20 18:02:00,
2013-02-20 13:07:00,32.0,13.6,29.92,WNW,287,10.0,25.0,46,0.00,,,0.00,meteohub,2013-02-20 18:07:00,
2013-02-20 13:12:00,32.5,14.5,29.92,NW,306,11.0,25.0,47,0.00,,,0.00,meteohub,2013-02-20 18:12:00,
2013-02-20 13:17:00,31.8,13.8,29.92,North,349,7.0,30.0,47,0.00,,,0.00,meteohub,2013-02-20 18:17:00,
2013-02-20 13:22:00,32.5,14.5,29.91,WNW,290,15.0,30.0,47,0.00,,,0.00,meteohub,2013-02-20 18:22:00,
2013-02-20 13:27:00,32.5,15.4,29.92,West,281,7.0,30.0,49,0.00,,,0.00,meteohub,2013-02-20 18:27:00,
2013-02-20 13:32:00,32.2,14.2,29.92,NW,315,6.0,25.0,47,0.00,,,0.00,meteohub,2013-02-20 18:32:00,
2013-02-20 13:37:00,31.6,13.6,29.92,WNW,283,14.0,25.0,47,0.00,,,0.00,meteohub,2013-02-20 18:37:00,
2013-02-20 13:42:00,31.1,13.6,29.93,SW,232,13.0,26.0,48,0.00,,,0.00,meteohub,2013-02-20 18:42:00,
2013-02-20 13:47:00,30.9,13.1,29.93,NW,304,12.0,26.0,47,0.00,,,0.00,meteohub,2013-02-20 18:47:00,
2013-02-20 13:52:00,31.3,13.8,29.93,WNW,298,13.0,26.0,48,0.00,,,0.00,meteohub,2013-02-20 18:52:00,
2013-02-20 13:57:00,31.3,14.4,29.94,NW,312,14.0,26.0,49,0.00,,,0.00,meteohub,2013-02-20 18:57:00,
2013-02-20 14:02:00,30.6,13.3,29.94,West,281,13.0,24.0,48,0.00,,,0.00,meteohub,2013-02-20 19:02:00,
2013-02-20 14:07:00,30.6,13.3,29.93,WSW,245,9.0,26.0,48,0.00,,,0.00,meteohub,2013-02-20 19:07:00,
2013-02-20 14:12:00,30.6,13.3,29.94,WNW,294,18.0,26.0,48,0.00,,,0.00,meteohub,2013-02-20 19:12:00,
2013-02-20 14:17:00,30.6,14.2,29.93,WSW,256,16.0,26.0,50,0.00,,,0.00,meteohub,2013-02-20 19:17:00,
2013-02-20 14:22:00,31.3,15.3,29.93,West,270,8.0,25.0,51,0.00,,,0.00,meteohub,2013-02-20 19:22:00,
2013-02-20 14:27:00,31.3,14.4,29.94,NW,307,11.0,25.0,49,0.00,,,0.00,meteohub,2013-02-20 19:27:00,
2013-02-20 14:32:00,30.9,13.1,29.94,WNW,300,14.0,27.0,47,0.00,,,0.00,meteohub,2013-02-20 19:32:00,
2013-02-20 14:37:00,30.9,13.5,29.94,WNW,300,14.0,27.0,48,0.00,,,0.00,meteohub,2013-02-20 19:37:00,
2013-02-20 14:42:00,30.7,12.9,29.94,NW,311,5.0,27.0,47,0.00,,,0.00,meteohub,2013-02-20 19:42:00,
2013-02-20 14:47:00,31.1,13.6,29.95,West,278,18.0,27.0,48,0.00,,,0.00,meteohub,2013-02-20 19:47:00,
2013-02-20 14:52:00,30.7,12.9,29.94,WNW,296,17.0,27.0,47,0.00,,,0.00,meteohub,2013-02-20 19:52:00,
2013-02-20 14:57:00,30.7,12.9,29.94,NW,316,8.0,25.0,47,0.00,,,0.00,meteohub,2013-02-20 19:57:00,
2013-02-20 15:02:00,31.3,12.9,29.95,WNW,289,9.0,25.0,46,0.00,,,0.00,meteohub,2013-02-20 20:02:00,
2013-02-20 15:07:00,31.6,13.3,29.95,WNW,283,10.0,24.0,46,0.00,,,0.00,meteohub,2013-02-20 20:07:00,
2013-02-20 15:12:00,31.3,12.4,29.95,WNW,300,14.0,26.0,45,0.00,,,0.00,meteohub,2013-02-20 20:12:00,
2013-02-20 15:17:00,30.9,13.1,29.95,WNW,298,14.0,26.0,47,0.00,,,0.00,meteohub,2013-02-20 20:17:00,
2013-02-20 15:22:00,30.7,11.8,29.95,NNW,334,10.0,26.0,45,0.00,,,0.00,meteohub,2013-02-20 20:22:00,
2013-02-20 15:27:00,30.7,11.5,29.95,NNW,339,9.0,25.0,44,0.00,,,0.00,meteohub,2013-02-20 20:27:00,
2013-02-20 15:32:00,30.7,11.5,29.95,WNW,288,14.0,25.0,44,0.00,,,0.00,meteohub,2013-02-20 20:32:00,
2013-02-20 15:37:00,30.7,12.4,29.95,West,281,6.0,25.0,46,0.00,,,0.00,meteohub,2013-02-20 20:37:00,
2013-02-20 15:42:00,30.6,12.7,29.95,WNW,290,10.0,26.0,47,0.00,,,0.00,meteohub,2013-02-20 20:42:00,
2013-02-20 15:47:00,30.7,13.3,29.95,NW,316,13.0,26.0,48,0.00,,,0.00,meteohub,2013-02-20 20:47:00,
2013-02-20 15:52:00,30.6,12.7,29.95,WNW,296,10.0,26.0,47,0.00,,,0.00,meteohub,2013-02-20 20:52:00,
2013-02-20 15:57:00,30.4,13.1,29.95,NNW,328,8.0,22.0,48,0.00,,,0.00,meteohub,2013-02-20 20:57:00,
2013-02-20 16:02:00,30.4,13.1,29.95,West,276,11.0,22.0,48,0.00,,,0.00,meteohub,2013-02-20 21:02:00,
2013-02-20 16:07:00,30.6,12.2,29.95,WNW,300,25.0,25.0,46,0.00,,,0.00,meteohub,2013-02-20 21:07:00,
2013-02-20 16:12:00,30.6,12.7,29.95,NW,316,8.0,25.0,47,0.00,,,0.00,meteohub,2013-02-20 21:12:00,
2013-02-20 16:17:00,30.7,12.9,29.95,West,277,15.0,25.0,47,0.00,,,0.00,meteohub,2013-02-20 21:17:00,
2013-02-20 16:22:00,30.7,12.4,29.95,West,271,12.0,28.0,46,0.00,,,0.00,meteohub,2013-02-20 21:22:00,
2013-02-20 16:27:00,30.7,13.3,29.96,NW,304,19.0,31.0,48,0.00,,,0.00,meteohub,2013-02-20 21:27:00,
2013-02-20 16:32:00,30.6,12.7,29.96,WNW,291,8.0,31.0,47,0.00,,,0.00,meteohub,2013-02-20 21:32:00,
2013-02-20 16:37:00,30.6,13.6,29.96,NW,307,15.0,31.0,49,0.00,,,0.00,meteohub,2013-02-20 21:37:00,
2013-02-20 16:42:00,30.6,14.2,29.96,WNW,283,11.0,25.0,50,0.00,,,0.00,meteohub,2013-02-20 21:42:00,
2013-02-20 16:47:00,30.4,13.5,29.96,NW,308,13.0,22.0,49,0.00,,,0.00,meteohub,2013-02-20 21:47:00,
2013-02-20 16:52:00,30.6,13.6,29.96,West,268,7.0,22.0,49,0.00,,,0.00,meteohub,2013-02-20 21:52:00,
2013-02-20 16:57:00,30.4,13.5,29.96,NW,308,10.0,22.0,49,0.00,,,0.00,meteohub,2013-02-20 21:57:00,
2013-02-20 17:02:00,30.4,13.5,29.96,West,274,17.0,22.0,49,0.00,,,0.00,meteohub,2013-02-20 22:02:00,
2013-02-20 17:07:00,30.2,12.9,29.96,West,276,10.0,27.0,48,0.00,,,0.00,meteohub,2013-02-20 22:07:00,
2013-02-20 17:12:00,30.0,13.1,29.96,WNW,295,12.0,27.0,49,0.00,,,0.00,meteohub,2013-02-20 22:12:00,
2013-02-20 17:17:00,30.0,13.6,29.96,WNW,291,7.0,27.0,50,0.00,,,0.00,meteohub,2013-02-20 22:17:00,
2013-02-20 17:22:00,30.0,14.0,29.97,WNW,284,13.0,22.0,51,0.00,,,0.00,meteohub,2013-02-20 22:22:00,
2013-02-20 17:27:00,29.8,14.0,29.97,NW,323,9.0,22.0,51,0.00,,,0.00,meteohub,2013-02-20 22:27:00,
2013-02-20 17:32:00,29.7,13.8,29.97,WNW,295,13.0,22.0,51,0.00,,,0.00,meteohub,2013-02-20 22:32:00,
2013-02-20 17:37:00,29.7,13.8,29.97,NW,309,10.0,20.0,51,0.00,,,0.00,meteohub,2013-02-20 22:37:00,
2013-02-20 17:42:00,29.5,14.0,29.98,WNW,300,13.0,21.0,52,0.00,,,0.00,meteohub,2013-02-20 22:42:00,
2013-02-20 17:47:00,29.3,13.8,29.98,NW,308,7.0,21.0,52,0.00,,,0.00,meteohub,2013-02-20 22:47:00,
2013-02-20 17:52:00,29.3,13.8,29.98,WNW,293,17.0,21.0,52,0.00,,,0.00,meteohub,2013-02-20 22:52:00,
2013-02-20 17:57:00,29.3,13.8,29.99,WNW,296,8.0,20.0,52,0.00,,,0.00,meteohub,2013-02-20 22:57:00,
2013-02-20 18:02:00,29.1,13.6,29.99,WNW,298,9.0,24.0,52,0.00,,,0.00,meteohub,2013-02-20 23:02:00,
2013-02-20 18:07:00,29.1,13.6,30.00,WNW,284,8.0,24.0,52,0.00,,,0.00,meteohub,2013-02-20 23:07:00,
2013-02-20 18:12:00,29.1,14.2,30.00,WNW,300,8.0,24.0,53,0.00,,,0.00,meteohub,2013-02-20 23:12:00,
2013-02-20 18:17:00,29.1,14.5,30.00,West,280,6.0,21.0,54,0.00,,,0.00,meteohub,2013-02-20 23:17:00,
2013-02-20 18:22:00,29.1,14.5,30.00,West,272,5.0,18.0,54,0.00,,,0.00,meteohub,2013-02-20 23:22:00,
2013-02-20 18:27:00,29.1,14.5,30.00,NW,307,9.0,19.0,54,0.00,,,0.00,meteohub,2013-02-20 23:27:00,
2013-02-20 18:32:00,29.1,14.5,30.01,WNW,295,6.0,19.0,54,0.00,,,0.00,meteohub,2013-02-20 23:32:00,
2013-02-20 18:37:00,29.1,14.5,30.01,WNW,295,14.0,19.0,54,0.00,,,0.00,meteohub,2013-02-20 23:37:00,
2013-02-20 18:42:00,28.9,14.7,30.01,NNW,328,9.0,19.0,55,0.00,,,0.00,meteohub,2013-02-20 23:42:00,
2013-02-20 18:47:00,28.9,14.7,30.01,WNW,301,12.0,16.0,55,0.00,,,0.00,meteohub,2013-02-20 23:47:00,
2013-02-20 18:52:00,29.1,14.9,30.01,West,273,11.0,18.0,55,0.00,,,0.00,meteohub,2013-02-20 23:52:00,
2013-02-20 18:57:00,29.1,14.5,30.01,NW,312,11.0,23.0,54,0.00,,,0.00,meteohub,2013-02-20 23:57:00,
2013-02-20 19:02:00,29.1,14.5,30.01,WNW,287,15.0,23.0,54,0.00,,,0.00,meteohub,2013-02-21 00:02:00,
2013-02-20 19:07:00,29.3,14.4,30.01,WNW,291,17.0,23.0,53,0.00,,,0.00,meteohub,2013-02-21 00:07:00,
2013-02-20 19:12:00,29.3,13.8,30.01,WNW,297,11.0,25.0,52,0.00,,,0.00,meteohub,2013-02-21 00:12:00,
2013-02-20 19:17:00,29.3,13.8,30.01,NNE,20,5.0,25.0,52,0.00,,,0.00,meteohub,2013-02-21 00:17:00,
2013-02-20 19:22:00,29.3,13.8,30.01,WNW,283,5.0,25.0,52,0.00,,,0.00,meteohub,2013-02-21 00:22:00,
2013-02-20 19:27:00,29.3,13.8,30.01,WNW,285,12.0,23.0,52,0.00,,,0.00,meteohub,2013-02-21 00:27:00,
2013-02-20 19:32:00,29.3,13.8,30.02,WNW,293,9.0,23.0,52,0.00,,,0.00,meteohub,2013-02-21 00:32:00,
2013-02-20 19:37:00,29.1,14.2,30.02,WNW,301,6.0,21.0,53,0.00,,,0.00,meteohub,2013-02-21 00:37:00,
2013-02-20 19:42:00,29.1,14.2,30.02,WNW,300,5.0,21.0,53,0.00,,,0.00,meteohub,2013-02-21 00:42:00,
2013-02-20 19:47:00,29.1,14.2,30.02,NW,316,16.0,20.0,53,0.00,,,0.00,meteohub,2013-02-21 00:47:00,
2013-02-20 19:52:00,28.9,14.0,30.02,West,276,15.0,20.0,53,0.00,,,0.00,meteohub,2013-02-21 00:52:00,
2013-02-20 19:57:00,28.9,14.0,30.02,WNW,297,5.0,20.0,53,0.00,,,0.00,meteohub,2013-02-21 00:57:00,
2013-02-20 20:02:00,28.8,14.2,30.02,WNW,288,11.0,18.0,54,0.00,,,0.00,meteohub,2013-02-21 01:02:00,
2013-02-20 20:07:00,28.8,13.8,30.02,WNW,293,18.0,19.0,53,0.00,,,0.00,meteohub,2013-02-21 01:07:00,
2013-02-20 20:12:00,28.8,14.2,30.02,WNW,296,8.0,23.0,54,0.00,,,0.00,meteohub,2013-02-21 01:12:00,
2013-02-20 20:17:00,28.6,14.0,30.01,WNW,293,12.0,23.0,54,0.00,,,0.00,meteohub,2013-02-21 01:17:00,
2013-02-20 20:22:00,28.6,14.0,30.02,West,281,9.0,23.0,54,0.00,,,0.00,meteohub,2013-02-21 01:22:00,
2013-02-20 20:27:00,28.4,13.5,30.02,WNW,290,9.0,21.0,53,0.00,,,0.00,meteohub,2013-02-21 01:27:00,
2013-02-20 20:32:00,28.2,13.3,30.01,WNW,288,14.0,22.0,53,0.00,,,0.00,meteohub,2013-02-21 01:32:00,
2013-02-20 20:37:00,28.2,13.3,30.01,NNE,20,8.0,22.0,53,0.00,,,0.00,meteohub,2013-02-21 01:37:00,
2013-02-20 20:42:00,28.0,13.1,30.02,WNW,295,9.0,22.0,53,0.00,,,0.00,meteohub,2013-02-21 01:42:00,
2013-02-20 20:47:00,28.0,13.1,30.02,NW,311,8.0,20.0,53,0.00,,,0.00,meteohub,2013-02-21 01:47:00,
2013-02-20 20:52:00,27.9,12.6,30.02,WNW,290,5.0,18.0,52,0.00,,,0.00,meteohub,2013-02-21 01:52:00,
2013-02-20 20:57:00,27.9,12.6,30.02,NNW,340,14.0,18.0,52,0.00,,,0.00,meteohub,2013-02-21 01:57:00,
2013-02-20 21:02:00,27.7,12.4,30.02,WNW,293,15.0,19.0,52,0.00,,,0.00,meteohub,2013-02-21 02:02:00,
2013-02-20 21:07:00,27.7,12.4,30.02,WNW,296,15.0,25.0,52,0.00,,,0.00,meteohub,2013-02-21 02:07:00,
2013-02-20 21:12:00,27.7,12.4,30.03,WNW,301,7.0,25.0,52,0.00,,,0.00,meteohub,2013-02-21 02:12:00,
2013-02-20 21:17:00,27.5,12.6,30.03,NW,305,7.0,25.0,53,0.00,,,0.00,meteohub,2013-02-21 02:17:00,
2013-02-20 21:22:00,27.5,12.2,30.03,NNW,341,6.0,18.0,52,0.00,,,0.00,meteohub,2013-02-21 02:22:00,
2013-02-20 21:27:00,27.5,12.2,30.03,NW,325,2.0,18.0,52,0.00,,,0.00,meteohub,2013-02-21 02:27:00,
2013-02-20 21:32:00,27.3,12.0,30.03,WNW,293,6.0,18.0,52,0.00,,,0.00,meteohub,2013-02-21 02:32:00,
2013-02-20 21:37:00,27.3,11.7,30.03,WNW,296,18.0,18.0,51,0.00,,,0.00,meteohub,2013-02-21 02:37:00,
2013-02-20 21:42:00,27.3,11.7,30.03,WNW,284,10.0,20.0,51,0.00,,,0.00,meteohub,2013-02-21 02:42:00,
2013-02-20 21:47:00,27.3,11.7,30.03,WSW,257,9.0,20.0,51,0.00,,,0.00,meteohub,2013-02-21 02:47:00,
2013-02-20 21:52:00,27.1,11.8,30.03,NNW,336,5.0,20.0,52,0.00,,,0.00,meteohub,2013-02-21 02:52:00,
2013-02-20 21:57:00,27.1,11.5,30.03,West,271,6.0,18.0,51,0.00,,,0.00,meteohub,2013-02-21 02:57:00,
2013-02-20 22:02:00,27.0,11.7,30.04,NW,312,8.0,18.0,52,0.00,,,0.00,meteohub,2013-02-21 03:02:00,
2013-02-20 22:07:00,27.0,12.0,30.04,West,276,8.0,18.0,53,0.00,,,0.00,meteohub,2013-02-21 03:07:00,
2013-02-20 22:12:00,27.0,12.0,30.04,WNW,298,7.0,14.0,53,0.00,,,0.00,meteohub,2013-02-21 03:12:00,
2013-02-20 22:17:00,27.0,12.0,30.04,WNW,287,6.0,12.0,53,0.00,,,0.00,meteohub,2013-02-21 03:17:00,
2013-02-20 22:22:00,26.8,12.0,30.04,NNW,339,9.0,12.0,53,0.00,,,0.00,meteohub,2013-02-21 03:22:00,
2013-02-20 22:27:00,26.8,12.0,30.04,NW,307,6.0,13.0,53,0.00,,,0.00,meteohub,2013-02-21 03:27:00,
2013-02-20 22:32:00,26.8,12.0,30.04,WNW,291,9.0,15.0,53,0.00,,,0.00,meteohub,2013-02-21 03:32:00,
2013-02-20 22:37:00,26.8,12.0,30.04,NW,313,8.0,15.0,53,0.00,,,0.00,meteohub,2013-02-21 03:37:00,
2013-02-20 22:42:00,26.6,12.2,30.04,WNW,300,5.0,15.0,54,0.00,,,0.00,meteohub,2013-02-21 03:42:00,
2013-02-20 22:47:00,26.4,12.0,30.04,NW,308,10.0,16.0,54,0.00,,,0.00,meteohub,2013-02-21 03:47:00,
2013-02-20 22:52:00,26.4,12.0,30.04,WNW,289,8.0,17.0,54,0.00,,,0.00,meteohub,2013-02-21 03:52:00,
2013-02-20 22:57:00,26.4,12.0,30.04,WNW,287,9.0,17.0,54,0.00,,,0.00,meteohub,2013-02-21 03:57:00,
2013-02-20 23:02:00,26.4,12.0,30.05,NW,308,5.0,17.0,54,0.00,,,0.00,meteohub,2013-02-21 04:02:00,
2013-02-20 23:07:00,26.2,11.8,30.05,WNW,295,12.0,17.0,54,0.00,,,0.00,meteohub,2013-02-21 04:07:00,
2013-02-20 23:12:00,26.2,11.8,30.05,WNW,294,10.0,16.0,54,0.00,,,0.00,meteohub,2013-02-21 04:12:00,
2013-02-20 23:17:00,26.2,11.8,30.05,WNW,302,5.0,20.0,54,0.00,,,0.00,meteohub,2013-02-21 04:17:00,
2013-02-20 23:22:00,26.1,12.0,30.05,WNW,290,11.0,20.0,55,0.00,,,0.00,meteohub,2013-02-21 04:22:00,
2013-02-20 23:27:00,26.1,11.7,30.05,WNW,300,10.0,20.0,54,0.00,,,0.00,meteohub,2013-02-21 04:27:00,
2013-02-20 23:32:00,26.1,12.0,30.05,WNW,291,6.0,16.0,55,0.00,,,0.00,meteohub,2013-02-21 04:32:00,
2013-02-20 23:37:00,26.1,12.0,30.06,WNW,291,7.0,16.0,55,0.00,,,0.00,meteohub,2013-02-21 04:37:00,
2013-02-20 23:42:00,25.9,12.0,30.06,NW,326,5.0,22.0,55,0.00,,,0.00,meteohub,2013-02-21 04:42:00,
2013-02-20 23:47:00,25.9,12.0,30.06,WNW,288,6.0,22.0,55,0.00,,,0.00,meteohub,2013-02-21 04:47:00,
2013-02-20 23:52:00,25.9,12.0,30.06,WNW,298,8.0,22.0,55,0.00,,,0.00,meteohub,2013-02-21 04:52:00,
2013-02-20 23:57:00,25.9,12.0,30.06,NW,308,3.0,15.0,55,0.00,,,0.00,meteohub,2013-02-21 04:57:00,